User: anonymous   Login
Location: Unspecified
(0.0000°N, 0.0000°E)
Time: 15:46:07
(UTC+00:00)
Language:

DUCHIFAT 1 - Orbit

View from above orbital plane
View from above orbital plane
View from above satellite
View from above satellite

Ground track
Ground track

The orbit data is extracted from the following two-line orbital elements,

1 40021U 14033M   18197.73467883 +.00000361 +00000-0 +42955-4 0  9999
2 40021 097.9150 116.5070 0014489 081.6015 278.6845 14.90338472221351
Epoch (UTC): 16 July 2018 17:37:56
Eccentricity: 0.0014489
inclination: 97.9150°
perigee height: 587 km
apogee height: 607 km
right ascension of ascending node: 116.5070°
argument of perigee: 81.6015°
revolutions per day: 14.90338472
mean anomaly at epoch: 278.6845°
orbit number at epoch: 22135

The dashed part of the orbit path shows where the satellite is in the earth's shadow,  

DLR